Regional Weather Roundup
Issued by NWS

Home | Current Version | Previous Version | Graphics & Text | Print | Product List | Glossary On
Versions: 1 2 3 4 5 6 7 8 9 10 11 12 13 14 15 16 17 18 19 20 21 22 23 24 25 26 27 28
000
ASUS45 KSLC 291310
RWRUT

UTAH REGIONAL WEATHER ROUNDUP
NATIONAL WEATHER SERVICE SALT LAKE CITY UT
700 AM MDT SAT APR 29 2017

UTZ001>011-023>025-291400-

NORTHERN UTAH

CITY           SKY/WX    TMP DP  RH WIND       PRES   REMARKS
BRIGHAM CITY   CLEAR     39  20  46 SE15G25   30.17R WCI  31
HILL AFB       MOCLDY    37  21  52 NE18G26   30.13R WCI  27
LOGAN          CLEAR     38  23  55 E14       30.18R WCI  30
OGDEN          CLEAR     38  21  50 NE18      30.12R WCI  28
SALT LAKE CITY PTCLDY    36  28  73 SW7       30.13R WCI  30
TOOELE VALLEY  CLEAR     34  28  80 N10       30.14R WCI  26
WENDOVER       CLEAR     42  23  46 NW15      30.17R
HEBER CITY     PTCLDY    34  19  55 N13G24    30.10R WCI  25
WEST JORDAN    CLEAR     40  31  68 N17G24    30.13R WCI  32

$$

UTZ011>015-024>027-291400-

CENTRAL/NORTHEAST UTAH

CITY           SKY/WX    TMP DP  RH WIND       PRES   REMARKS
PROVO AIRPORT  CLEAR     30  28  92 VRB6      30.10R WCI  24
MOAB/CANYONLAN CLOUDY    43  26  51 NE8       29.93R
DELTA          PTCLDY    32  28  86 NE5       30.09R WCI  27
PRICE          CLEAR     30  20  66 N8        30.01R WCI  22
RICHFIELD      MOCLDY    34  30  86 CALM      30.10R
ROOSEVELT      CLEAR     32  28  86 W9        30.08R WCI  24
VERNAL         PTCLDY    35  19  52 NE14G21   30.07R WCI  26

$$

UTZ013>016-019>022-027-291400-

SOUTHERN UTAH

CITY           SKY/WX    TMP DP  RH WIND       PRES   REMARKS
BRYCE CANYON   PTCLDY    29  21  72 NW12G28   29.99R WCI  19
CEDAR CITY     CLOUDY    38  27  64 N14G21    30.05R WCI  30
MILFORD        CLOUDY    38  29  70 NE14      30.06R WCI  30
ST GEORGE      MOSUNNY   44  25  47 S12       30.01R
HANKSVILLE     PTCLDY    39  21  48 N7        29.98R WCI  34
KANAB            N/A     36  21  55 SE5       30.04R WCI  32
BLANDING       CLOUDY    37  27  69 NW9       29.94R WCI  30

$$

REGIONAL REPORTS     COLORADO/ARIZONA

CITY           SKY/WX    TMP DP  RH WIND       PRES   REMARKS
CRAIG, CO      CLOUDY    32  20  61 N8        30.02R WCI  25
GRAND JUNCTION CLOUDY    41  26  55 NE5       29.94R
RIFLE, CO      CLOUDY    36  28  73 CALM      29.96R
MONTROSE, CO   CLOUDY    31  31 100 CALM      29.95R FOG
CORTEZ, CO     CLOUDY    24  23  96 E8        29.87R FOG     WCI  15
COLORADO CITY  PTSUNNY   32  23  69 CALM      30.03R
PAGE, AZ       MOCLDY    45  25  45 NW5       29.94R
GRAND CANYON   HAZE      21  14  74 CALM      29.98R VSB 1/4
KINGMAN, AZ    CLEAR     44  32  62 NE9       30.01R
FLAGSTAFF, AZ  CLEAR     25  13  60 CALM      29.94R

$$

REGIONAL REPORTS    NEVADA/IDAHO/WYOMING

CITY           SKY/WX    TMP DP  RH WIND       PRES   REMARKS
LAS VEGAS, NV  CLEAR     57  17  21 NW17      30.03S
ELY, NY        CLEAR     29  18  63 N14       30.15R WCI  18
ELKO, NV       CLEAR     27  22  81 CALM      30.23R
POCATELLO, ID  CLEAR     29  26  89 S8        30.20R WCI  21
BURLEY, ID     CLEAR     36  27  69 W9        30.20R WCI  29
EVANSTON, WY   MOCLDY    24  19  81 NE7       30.15R WCI  16
ROCK SPRINGS,  CLOUDY    27  19  72 N15       30.15R WCI  15

$$




USA.gov is the U.S. government's official web portal to all federal, state and local government web resources and services.